,,PA_Meas_PMT16A,,PR_Meas_QMR101_102,,RH_Meas_QMH101,,SR_Meas_QMS101,,TA_Meas_QMH101,,GenWind,,GenWind,
time,status,PA,status,PR,status,RH,status,SR,status,TA,status,DirAvg,status,SpdAvg,
2015-06-02, 07:08:04,VALID,917.139,VALID,0,VALID,98.8833,VALID,78.9692,VALID,18.9633,VALID,144,VALID,0,
2015-06-02, 07:09:04,VALID,917.142,VALID,0,VALID,98.8681,VALID,83.8041,VALID,19.0023,VALID,145,VALID,0,
2015-06-02, 07:10:04,VALID,917.146,VALID,0,VALID,98.8452,VALID,92.5068,VALID,19.0608,VALID,148,VALID,0,
2015-06-02, 07:11:04,VALID,917.179,VALID,0,VALID,98.8528,VALID,102.391,VALID,19.0593,VALID,157,VALID,0,
2015-06-02, 07:12:04,VALID,917.175,VALID,0,VALID,98.8376,VALID,112.061,VALID,19.1178,VALID,157,VALID,0,
2015-06-02, 07:13:04,VALID,917.228,VALID,0,VALID,98.8147,VALID,119.045,VALID,19.1763,VALID,156,VALID,0,
2015-06-02, 07:14:04,VALID,917.262,VALID,0,VALID,98.83,VALID,124.095,VALID,19.2348,VALID,157,VALID,0,
2015-06-02, 07:15:04,VALID,917.302,VALID,0,VALID,98.8147,VALID,130.434,VALID,19.2918,VALID,157,VALID,0,
2015-06-02, 07:16:04,VALID,917.31,VALID,0,VALID,98.7918,VALID,134.731,VALID,19.3518,VALID,162,VALID,0,
2015-06-02, 07:17:04,VALID,917.336,VALID,0,VALID,98.7918,VALID,136.235,VALID,19.4298,VALID,182,VALID,0,
2015-06-02, 07:18:04,VALID,917.367,VALID,0,VALID,98.7766,VALID,137.417,VALID,19.4103,VALID,173,VALID,0,
2015-06-02, 07:19:04,VALID,917.39,VALID,0,VALID,98.7766,VALID,136.235,VALID,19.4103,VALID,156,VALID,0,
2015-06-02, 07:20:04,VALID,917.428,VALID,0,VALID,98.8147,VALID,138.169,VALID,19.3518,VALID,152,VALID,0,
2015-06-02, 07:21:04,VALID,917.465,VALID,0,VALID,98.7995,VALID,142.574,VALID,19.3323,VALID,136,VALID,1.45352,
2015-06-02, 07:22:04,VALID,917.478,VALID,0,VALID,98.7995,VALID,141.178,VALID,19.3908,VALID,130,VALID,1.22187,
2015-06-02, 07:23:04,VALID,917.51,VALID,0,VALID,98.7918,VALID,140.103,VALID,19.4298,VALID,122,VALID,1.30273,
2015-06-02, 07:24:04,VALID,917.53,VALID,0,VALID,98.7766,VALID,139.136,VALID,19.4688,VALID,123,VALID,0.894531,
2015-06-02, 07:25:04,VALID,917.576,VALID,0,VALID,98.7842,VALID,136.128,VALID,19.6068,VALID,124,VALID,0.853516,
2015-06-02, 07:26:04,VALID,917.543,VALID,0,VALID,98.7766,VALID,133.227,VALID,19.5678,VALID,134,VALID,1.05859,
2015-06-02, 07:27:04,VALID,917.588,VALID,0,VALID,98.7995,VALID,128.929,VALID,19.4883,VALID,135,VALID,1.1375,
2015-06-02, 07:28:04,VALID,917.604,VALID,0,VALID,98.7842,VALID,124.309,VALID,19.5483,VALID,142,VALID,0.964063,
2015-06-02, 07:29:04,VALID,917.63,VALID,0,VALID,98.7766,VALID,119.475,VALID,19.5468,VALID,138,VALID,0.851953,
2015-06-02, 07:30:04,VALID,917.65,VALID,0,VALID,98.7842,VALID,115.822,VALID,19.5843,VALID,138,VALID,0.413672,
2015-06-02, 07:31:04,VALID,917.649,VALID,0,VALID,98.769,VALID,114.747,VALID,19.6248,VALID,142,VALID,0.660547,
2015-06-02, 07:32:04,VALID,917.687,VALID,0,VALID,98.769,VALID,115.177,VALID,19.6833,VALID,142,VALID,0,
2015-06-02, 07:33:04,VALID,917.678,VALID,0,VALID,98.7461,VALID,115.284,VALID,19.7028,VALID,170,VALID,0,
2015-06-02, 07:34:04,VALID,917.714,VALID,0,VALID,98.7537,VALID,118.185,VALID,19.7613,VALID,170,VALID,0,
2015-06-02, 07:35:04,VALID,917.784,VALID,0,VALID,98.7614,VALID,121.301,VALID,19.6833,VALID,166,VALID,0,
2015-06-02, 07:36:04,VALID,917.783,VALID,0,VALID,98.7614,VALID,125.062,VALID,19.7223,VALID,162,VALID,0,
2015-06-02, 07:37:04,VALID,917.76,VALID,0,VALID,98.7842,VALID,128.5,VALID,19.7028,VALID,150,VALID,0,
2015-06-02, 07:38:04,VALID,917.8,VALID,0,VALID,98.7461,VALID,130.111,VALID,19.7808,VALID,150,VALID,0,
2015-06-02, 07:39:04,VALID,917.791,VALID,0,VALID,98.7614,VALID,133.764,VALID,19.7613,VALID,171,VALID,0,
2015-06-02, 07:40:04,VALID,917.791,VALID,0,VALID,98.7842,VALID,138.921,VALID,19.7418,VALID,177,VALID,0,
2015-06-02, 07:41:04,VALID,917.831,VALID,0,VALID,98.7614,VALID,148.054,VALID,19.7613,VALID,176,VALID,0,
2015-06-02, 07:42:04,VALID,917.85,VALID,0,VALID,98.7614,VALID,156.972,VALID,19.7613,VALID,173,VALID,0,
2015-06-02, 07:43:04,VALID,917.841,VALID,0,VALID,98.769,VALID,159.55,VALID,19.7808,VALID,161,VALID,0,
2015-06-02, 07:44:04,VALID,917.864,VALID,0,VALID,98.7614,VALID,159.12,VALID,19.7808,VALID,138,VALID,0,
2015-06-02, 07:45:04,VALID,917.862,VALID,0,VALID,98.769,VALID,158.476,VALID,19.7613,VALID,139,VALID,0,
2015-06-02, 07:46:04,VALID,917.841,VALID,0,VALID,98.769,VALID,159.658,VALID,19.7613,VALID,139,VALID,0,
2015-06-02, 07:47:04,VALID,917.849,VALID,0,VALID,98.7842,VALID,162.558,VALID,19.8198,VALID,139,VALID,0,
2015-06-02, 07:48:04,VALID,917.833,VALID,0,VALID,98.7385,VALID,164.278,VALID,19.9173,VALID,138,VALID,0,
2015-06-02, 07:49:04,VALID,917.816,VALID,0,VALID,98.7461,VALID,167.823,VALID,19.9353,VALID,139,VALID,0,
2015-06-02, 07:50:04,VALID,917.816,VALID,0,VALID,98.7537,VALID,172.121,VALID,19.9743,VALID,139,VALID,0,
2015-06-02, 07:51:04,VALID,917.858,VALID,0,VALID,98.7537,VALID,176.311,VALID,19.9953,VALID,139,VALID,0,
2015-06-02, 07:52:04,VALID,917.898,VALID,0,VALID,98.7461,VALID,178.89,VALID,20.0148,VALID,139,VALID,0,
2015-06-02, 07:53:04,VALID,917.904,VALID,0,VALID,98.7537,VALID,179.642,VALID,20.0718,VALID,129,VALID,0,
2015-06-02, 07:54:04,VALID,917.944,VALID,0,VALID,98.7232,VALID,175.559,VALID,20.1708,VALID,132,VALID,0,
2015-06-02, 07:55:04,VALID,917.973,VALID,0,VALID,98.708,VALID,151.492,VALID,20.2489,VALID,136,VALID,0,
2015-06-02, 07:56:04,VALID,917.972,VALID,0,VALID,98.6927,VALID,135.161,VALID,20.3058,VALID,141,VALID,0,
2015-06-02, 07:57:04,VALID,917.984,VALID,0,VALID,98.6927,VALID,141.07,VALID,20.3464,VALID,117,VALID,0,
2015-06-02, 07:58:04,VALID,918.006,VALID,0,VALID,98.6851,VALID,146.765,VALID,20.3448,VALID,132,VALID,0,
2015-06-02, 07:59:04,VALID,917.994,VALID,0,VALID,98.7004,VALID,144.079,VALID,20.3269,VALID,132,VALID,0,
2015-06-02, 08:00:04,VALID,917.968,VALID,0,VALID,98.7537,VALID,136.45,VALID,20.2473,VALID,138,VALID,0,
2015-06-02, 08:01:04,VALID,917.95,VALID,0,VALID,98.7766,VALID,135.483,VALID,20.2278,VALID,138,VALID,0,
2015-06-02, 08:02:04,VALID,918,VALID,0,VALID,98.7842,VALID,144.723,VALID,20.1708,VALID,146,VALID,0,
2015-06-02, 08:03:04,VALID,917.982,VALID,0,VALID,98.7995,VALID,152.674,VALID,20.1708,VALID,146,VALID,0,
2015-06-02, 08:04:04,VALID,918,VALID,0,VALID,98.8071,VALID,155.36,VALID,20.1708,VALID,146,VALID,0,
2015-06-02, 08:05:04,VALID,918.011,VALID,0,VALID,98.7995,VALID,149.451,VALID,20.1888,VALID,134,VALID,0,
2015-06-02, 08:06:04,VALID,918.02,VALID,0,VALID,98.8071,VALID,162.236,VALID,20.2083,VALID,128,VALID,0,
2015-06-02, 08:07:04,VALID,918.037,VALID,0,VALID,98.8071,VALID,170.509,VALID,20.2473,VALID,128,VALID,0,
2015-06-02, 08:08:04,VALID,918.056,VALID,0,VALID,98.7842,VALID,176.956,VALID,20.3253,VALID,127,VALID,0,
2015-06-02, 08:09:04,VALID,918.106,VALID,0,VALID,98.769,VALID,182.328,VALID,20.3448,VALID,127,VALID,0,
2015-06-02, 08:10:04,VALID,918.135,VALID,0,VALID,98.7842,VALID,190.278,VALID,20.3838,VALID,127,VALID,0,
2015-06-02, 08:11:04,VALID,918.13,VALID,0,VALID,98.7614,VALID,197.584,VALID,20.4813,VALID,127,VALID,0,
2015-06-02, 08:12:04,VALID,918.164,VALID,0,VALID,98.7537,VALID,198.551,VALID,20.5594,VALID,127,VALID,0,
2015-06-02, 08:13:04,VALID,918.197,VALID,0,VALID,98.6927,VALID,204.998,VALID,20.7349,VALID,127,VALID,0,
2015-06-02, 08:14:04,VALID,918.186,VALID,0,VALID,98.6851,VALID,214.13,VALID,20.7544,VALID,127,VALID,0,
2015-06-02, 08:15:04,VALID,918.191,VALID,0,VALID,98.7918,VALID,219.287,VALID,20.6553,VALID,126,VALID,0,
2015-06-02, 08:16:04,VALID,918.197,VALID,0,VALID,98.7918,VALID,221.436,VALID,20.7349,VALID,120,VALID,0,
2015-06-02, 08:17:04,VALID,918.206,VALID,0,VALID,98.8376,VALID,219.932,VALID,20.7544,VALID,120,VALID,0,
2015-06-02, 08:18:04,VALID,918.192,VALID,0,VALID,98.83,VALID,225.734,VALID,20.8129,VALID,120,VALID,0,
2015-06-02, 08:19:04,VALID,918.188,VALID,0,VALID,98.8147,VALID,228.42,VALID,20.969,VALID,119,VALID,0,
2015-06-02, 08:20:04,VALID,918.21,VALID,0,VALID,98.7918,VALID,232.18,VALID,21.1039,VALID,105,VALID,0,
2015-06-02, 08:21:04,VALID,918.247,VALID,0,VALID,98.769,VALID,230.891,VALID,21.26,VALID,37,VALID,0,
2015-06-02, 08:22:04,VALID,918.266,VALID,0,VALID,98.7232,VALID,234.329,VALID,21.416,VALID,16,VALID,0,
2015-06-02, 08:23:04,VALID,918.243,VALID,0,VALID,98.7614,VALID,241.743,VALID,21.4746,VALID,357,VALID,0,
2015-06-02, 08:24:04,VALID,918.278,VALID,0,VALID,98.7918,VALID,247.437,VALID,21.5721,VALID,11,VALID,0,
2015-06-02, 08:25:04,VALID,918.271,VALID,0,VALID,98.8223,VALID,255.71,VALID,21.5331,VALID,344,VALID,0,
2015-06-02, 08:26:04,VALID,918.28,VALID,0,VALID,98.8452,VALID,256.892,VALID,21.4941,VALID,309,VALID,0,
2015-06-02, 08:27:04,VALID,918.258,VALID,0,VALID,98.9901,VALID,268.925,VALID,21.26,VALID,299,VALID,0,
2015-06-02, 08:28:04,VALID,918.247,VALID,0,VALID,99.0129,VALID,272.148,VALID,21.1819,VALID,299,VALID,0,
2015-06-02, 08:29:04,VALID,918.253,VALID,0,VALID,99.0053,VALID,277.091,VALID,21.1819,VALID,299,VALID,0,
2015-06-02, 08:30:04,VALID,918.234,VALID,0,VALID,98.9824,VALID,276.124,VALID,21.2616,VALID,17,VALID,0,
2015-06-02, 08:31:04,VALID,918.254,VALID,0,VALID,98.9291,VALID,267.958,VALID,21.4177,VALID,37,VALID,0,
2015-06-02, 08:32:04,VALID,918.23,VALID,0,VALID,98.9977,VALID,273.438,VALID,21.4177,VALID,13,VALID,0,
2015-06-02, 08:33:04,VALID,918.24,VALID,0,VALID,99.0815,VALID,265.057,VALID,21.3185,VALID,13,VALID,0,
2015-06-02, 08:34:04,VALID,918.216,VALID,0,VALID,99.112,VALID,257.536,VALID,21.26,VALID,8,VALID,0,
2015-06-02, 08:35:04,VALID,918.254,VALID,0,VALID,99.0892,VALID,266.776,VALID,21.26,VALID,6,VALID,0,
2015-06-02, 08:36:04,VALID,918.236,VALID,0,VALID,98.9977,VALID,267.958,VALID,21.338,VALID,338,VALID,0,
2015-06-02, 08:37:04,VALID,918.202,VALID,0,VALID,98.9596,VALID,265.595,VALID,21.3965,VALID,39,VALID,0,
2015-06-02, 08:38:04,VALID,918.24,VALID,0,VALID,98.9977,VALID,259.578,VALID,21.3981,VALID,40,VALID,0,
2015-06-02, 08:39:04,VALID,918.25,VALID,0,VALID,98.9443,VALID,270.752,VALID,21.4355,VALID,35,VALID,0.691016,
2015-06-02, 08:40:04,VALID,918.259,VALID,0,VALID,98.9062,VALID,283.43,VALID,21.5136,VALID,29,VALID,0.873438,
2015-06-02, 08:41:04,VALID,918.297,VALID,0,VALID,98.8223,VALID,299.224,VALID,21.5916,VALID,28,VALID,0.158594,
2015-06-02, 08:42:04,VALID,918.324,VALID,0,VALID,98.7156,VALID,311.15,VALID,21.6891,VALID,10,VALID,0,
2015-06-02, 08:43:04,VALID,918.328,VALID,0,VALID,98.6165,VALID,318.885,VALID,21.7477,VALID,39,VALID,0,
2015-06-02, 08:44:04,VALID,918.364,VALID,0,VALID,98.4793,VALID,331.671,VALID,21.8842,VALID,29,VALID,0,
2015-06-02, 08:45:04,VALID,918.364,VALID,0,VALID,98.243,VALID,341.233,VALID,21.9233,VALID,15,VALID,0.000390625,
2015-06-02, 08:46:04,VALID,918.386,VALID,0,VALID,97.8389,VALID,347.68,VALID,21.9038,VALID,359,VALID,0.186719,
2015-06-02, 08:47:04,VALID,918.361,VALID,0,VALID,96.7411,VALID,353.911,VALID,21.8257,VALID,333,VALID,1.02383,
2015-06-02, 08:48:04,VALID,918.39,VALID,0,VALID,96.4819,VALID,363.151,VALID,21.8631,VALID,312,VALID,0,
2015-06-02, 08:49:04,VALID,918.342,VALID,0,VALID,96.7259,VALID,369.06,VALID,22.0403,VALID,359,VALID,0.853516,
2015-06-02, 08:50:04,VALID,918.392,VALID,0,VALID,96.9775,VALID,368.416,VALID,22.255,VALID,360,VALID,0,
2015-06-02, 08:51:04,VALID,918.381,VALID,0,VALID,96.6573,VALID,373.143,VALID,22.372,VALID,330,VALID,0,
2015-06-02, 08:52:04,VALID,918.389,VALID,0,VALID,95.7577,VALID,374.755,VALID,22.372,VALID,285,VALID,0,
2015-06-02, 08:53:04,VALID,918.379,VALID,0,VALID,94.9649,VALID,370.135,VALID,22.2533,VALID,276,VALID,0,
2015-06-02, 08:54:04,VALID,918.426,VALID,0,VALID,94.538,VALID,364.763,VALID,22.1167,VALID,272,VALID,0,
2015-06-02, 08:55:04,VALID,918.444,VALID,0,VALID,94.3245,VALID,371.746,VALID,22.0989,VALID,272,VALID,0,
2015-06-02, 08:56:04,VALID,918.431,VALID,0,VALID,94.7057,VALID,372.176,VALID,22.0794,VALID,272,VALID,0,
2015-06-02, 08:57:04,VALID,918.454,VALID,0,VALID,94.1873,VALID,378.3,VALID,22.0582,VALID,272,VALID,0,
2015-06-02, 08:58:04,VALID,918.469,VALID,0,VALID,94.4999,VALID,384.21,VALID,22.1362,VALID,273,VALID,0,
2015-06-02, 08:59:04,VALID,918.481,VALID,0,VALID,93.768,VALID,395.383,VALID,22.1752,VALID,271,VALID,0,
2015-06-02, 09:00:04,VALID,918.484,VALID,0,VALID,92.5178,VALID,400.433,VALID,22.1752,VALID,271,VALID,0,
2015-06-02, 09:01:04,VALID,918.487,VALID,0,VALID,93.0895,VALID,402.797,VALID,22.1735,VALID,271,VALID,0,
2015-06-02, 09:02:04,VALID,918.527,VALID,0,VALID,93.2954,VALID,396.35,VALID,22.1752,VALID,272,VALID,0,
2015-06-02, 09:03:04,VALID,918.528,VALID,0,VALID,92.9828,VALID,393.235,VALID,22.2338,VALID,266,VALID,0,
2015-06-02, 09:04:04,VALID,918.503,VALID,0,VALID,92.655,VALID,385.929,VALID,22.2533,VALID,268,VALID,0,
2015-06-02, 09:05:04,VALID,918.513,VALID,0,VALID,93.0285,VALID,378.515,VALID,22.2728,VALID,265,VALID,0,
2015-06-02, 09:06:04,VALID,918.53,VALID,0,VALID,93.6918,VALID,381.309,VALID,22.3508,VALID,297,VALID,0,
2015-06-02, 09:07:04,VALID,918.523,VALID,0,VALID,94.073,VALID,372.713,VALID,22.5459,VALID,315,VALID,0,
2015-06-02, 09:08:04,VALID,918.5,VALID,0,VALID,92.7846,VALID,359.82,VALID,22.6843,VALID,314,VALID,0,
2015-06-02, 09:09:04,VALID,918.498,VALID,0,VALID,91.8317,VALID,294.066,VALID,22.8404,VALID,314,VALID,0,
2015-06-02, 09:10:04,VALID,918.546,VALID,0,VALID,88.0505,VALID,275.479,VALID,22.7818,VALID,314,VALID,0,
2015-06-02, 09:12:04,VALID,918.539,VALID,0,VALID,87.6769,VALID,267.421,VALID,22.7818,VALID,311,VALID,0,
2015-06-02, 09:13:04,VALID,918.54,VALID,0,VALID,87.8599,VALID,285.793,VALID,22.8014,VALID,310,VALID,0,
2015-06-02, 09:14:04,VALID,918.565,VALID,0,VALID,87.7303,VALID,254.313,VALID,22.9185,VALID,309,VALID,0,
2015-06-02, 09:15:04,VALID,918.591,VALID,0,VALID,86.8307,VALID,290.736,VALID,22.9557,VALID,309,VALID,0,
2015-06-02, 09:16:04,VALID,918.607,VALID,0,VALID,87.4406,VALID,262.371,VALID,23.0728,VALID,309,VALID,0,
2015-06-02, 09:17:04,VALID,918.637,VALID,0,VALID,86.0912,VALID,263.123,VALID,23.229,VALID,309,VALID,0,
2015-06-02, 09:18:04,VALID,918.637,VALID,0,VALID,85.1688,VALID,247.115,VALID,23.3461,VALID,309,VALID,0,
2015-06-02, 09:19:04,VALID,918.693,VALID,0,VALID,83.85,VALID,246.9,VALID,23.3851,VALID,309,VALID,0,
2015-06-02, 09:20:04,VALID,918.651,VALID,0,VALID,83.7051,VALID,299.653,VALID,23.4632,VALID,309,VALID,0,
2015-06-02, 09:21:04,VALID,918.667,VALID,0,VALID,82.9046,VALID,409.028,VALID,23.4845,VALID,306,VALID,0,
2015-06-02, 09:25:04,VALID,918.682,VALID,0,VALID,83.5374,VALID,458.666,VALID,23.3656,VALID,319,VALID,0,
2015-06-02, 09:26:04,VALID,918.674,VALID,0,VALID,83.3849,VALID,451.79,VALID,23.3851,VALID,265,VALID,0,
2015-06-02, 09:27:04,VALID,918.669,VALID,0,VALID,82.5387,VALID,465.65,VALID,23.3265,VALID,265,VALID,0,
2015-06-02, 09:28:04,VALID,918.659,VALID,0,VALID,83.1486,VALID,460.923,VALID,23.3265,VALID,265,VALID,0,
2015-06-02, 09:29:04,VALID,918.642,VALID,0,VALID,83.606,VALID,467.476,VALID,23.4437,VALID,263,VALID,0,
2015-06-02, 09:30:04,VALID,918.628,VALID,0,VALID,82.3329,VALID,478.221,VALID,23.4632,VALID,258,VALID,0,
2015-06-02, 09:31:04,VALID,918.617,VALID,0,VALID,82.4777,VALID,488.642,VALID,23.3851,VALID,258,VALID,0,
2015-06-02, 09:32:04,VALID,918.618,VALID,0,VALID,83.1105,VALID,499.386,VALID,23.4028,VALID,258,VALID,0,
2015-06-02, 09:33:04,VALID,918.636,VALID,0,VALID,83.8118,VALID,517.437,VALID,23.5608,VALID,262,VALID,0,
2015-06-02, 09:34:04,VALID,918.672,VALID,0,VALID,81.1589,VALID,501.75,VALID,23.5785,VALID,263,VALID,0,
2015-06-02, 09:35:04,VALID,918.68,VALID,0,VALID,80.3737,VALID,523.561,VALID,23.7542,VALID,291,VALID,0,
2015-06-02, 09:36:04,VALID,918.72,VALID,0,VALID,78.1553,VALID,544.404,VALID,23.6956,VALID,237,VALID,0,
2015-06-02, 09:37:04,VALID,918.755,VALID,0,VALID,80.9073,VALID,577.496,VALID,23.7364,VALID,284,VALID,0,
2015-06-02, 09:38:04,VALID,918.778,VALID,0,VALID,79.7333,VALID,499.064,VALID,23.7364,VALID,270,VALID,0.311328,
2015-06-02, 09:39:04,VALID,918.806,VALID,0,VALID,79.3826,VALID,563.529,VALID,23.6566,VALID,282,VALID,1.02266,
2015-06-02, 09:40:04,VALID,918.836,VALID,0,VALID,77.8732,VALID,576.959,VALID,23.4614,VALID,278,VALID,0,
2015-06-02, 09:41:04,VALID,918.824,VALID,0,VALID,77.1871,VALID,491.436,VALID,23.3265,VALID,288,VALID,0,
2015-06-02, 09:42:04,VALID,918.826,VALID,0,VALID,77.8198,VALID,445.451,VALID,23.3248,VALID,235,VALID,0.0621094,
2015-06-02, 09:43:04,VALID,918.855,VALID,0,VALID,78.0562,VALID,543.222,VALID,23.4419,VALID,264,VALID,0,
2015-06-02, 09:44:04,VALID,918.828,VALID,0,VALID,78.9252,VALID,285.041,VALID,23.5572,VALID,299,VALID,0,
2015-06-02, 09:45:04,VALID,918.84,VALID,0,VALID,80.6252,VALID,269.14,VALID,23.7737,VALID,324,VALID,0,
2015-06-02, 09:46:04,VALID,918.832,VALID,0,VALID,78.5517,VALID,243.999,VALID,23.8908,VALID,323,VALID,0,
2015-06-02, 09:47:04,VALID,918.826,VALID,0,VALID,77.9266,VALID,242.065,VALID,23.9103,VALID,312,VALID,0,
2015-06-02, 09:48:04,VALID,918.815,VALID,0,VALID,78.1171,VALID,255.173,VALID,23.8713,VALID,312,VALID,0,
2015-06-02, 09:49:04,VALID,918.842,VALID,0,VALID,78.0638,VALID,261.942,VALID,23.9103,VALID,312,VALID,0,
2015-06-02, 09:50:04,VALID,918.844,VALID,0,VALID,78.445,VALID,264.735,VALID,24.0274,VALID,312,VALID,0,
2015-06-02, 09:51:04,VALID,918.848,VALID,0,VALID,77.6292,VALID,259.148,VALID,24.1641,VALID,333,VALID,0,
2015-06-02, 09:52:04,VALID,918.873,VALID,0,VALID,75.9826,VALID,272.041,VALID,24.1445,VALID,313,VALID,0,
2015-06-02, 09:53:04,VALID,918.883,VALID,0,VALID,76.1732,VALID,296.967,VALID,24.0665,VALID,313,VALID,0,
2015-06-02, 09:54:04,VALID,918.887,VALID,0,VALID,77.4615,VALID,403.656,VALID,23.8694,VALID,303,VALID,0,
2015-06-02, 09:55:04,VALID,918.867,VALID,0,VALID,77.7741,VALID,581.257,VALID,23.8731,VALID,304,VALID,0,
2015-06-02, 09:56:04,VALID,918.88,VALID,0,VALID,77.6597,VALID,459.418,VALID,23.9103,VALID,287,VALID,0,
2015-06-02, 09:57:04,VALID,918.853,VALID,0,VALID,79.4055,VALID,596.513,VALID,24.0469,VALID,248,VALID,0,
2015-06-02, 09:58:04,VALID,918.863,VALID,0,VALID,77.5911,VALID,448.137,VALID,24.1445,VALID,285,VALID,0,
2015-06-02, 09:59:04,VALID,918.849,VALID,0,VALID,77.7817,VALID,333.175,VALID,24.1445,VALID,273,VALID,0,
2015-06-02, 10:00:04,VALID,918.811,VALID,0,VALID,79.5427,VALID,417.194,VALID,24.1854,VALID,258,VALID,0,
2015-06-02, 10:01:04,VALID,918.83,VALID,0,VALID,78.14,VALID,559.124,VALID,24.2245,VALID,258,VALID,0,
2015-06-02, 10:02:04,VALID,918.822,VALID,0,VALID,79.253,VALID,631.969,VALID,24.3416,VALID,261,VALID,0,
2015-06-02, 10:03:04,VALID,918.839,VALID,0,VALID,76.7297,VALID,604.142,VALID,24.3806,VALID,263,VALID,0,
2015-06-02, 10:04:04,VALID,918.819,VALID,0,VALID,77.3624,VALID,495.733,VALID,24.3593,VALID,257,VALID,0,
2015-06-02, 10:05:04,VALID,918.85,VALID,0,VALID,77.1413,VALID,377.441,VALID,24.4178,VALID,256,VALID,0,
2015-06-02, 10:06:04,VALID,918.824,VALID,0,VALID,77.9418,VALID,558.264,VALID,24.4764,VALID,356,VALID,0,
2015-06-02, 10:07:04,VALID,918.858,VALID,0,VALID,75.7081,VALID,476.501,VALID,24.6131,VALID,355,VALID,0,
2015-06-02, 10:08:04,VALID,918.868,VALID,0,VALID,78.0028,VALID,428.475,VALID,24.7302,VALID,349,VALID,0.522656,
2015-06-02, 10:09:04,VALID,918.857,VALID,0,VALID,75.7158,VALID,465.972,VALID,24.7497,VALID,341,VALID,0,
2015-06-02, 10:10:04,VALID,918.854,VALID,0,VALID,76.6458,VALID,659.581,VALID,24.6716,VALID,309,VALID,0,
2015-06-02, 10:11:04,VALID,918.827,VALID,0,VALID,77.4996,VALID,375.722,VALID,24.7107,VALID,335,VALID,0,
2015-06-02, 10:12:04,VALID,918.832,VALID,0,VALID,76.3561,VALID,342.845,VALID,24.7693,VALID,289,VALID,0,
2015-06-02, 10:13:04,VALID,918.8,VALID,0,VALID,77.5149,VALID,474.353,VALID,24.7888,VALID,274,VALID,0,
2015-06-02, 10:14:04,VALID,918.852,VALID,0,VALID,77.2023,VALID,377.548,VALID,24.7497,VALID,271,VALID,0,
2015-06-02, 10:15:04,VALID,918.798,VALID,0,VALID,77.0651,VALID,703.095,VALID,24.6912,VALID,271,VALID,0,
2015-06-02, 10:16:04,VALID,918.819,VALID,0,VALID,77.8351,VALID,720.823,VALID,24.6521,VALID,271,VALID,0,
2015-06-02, 10:17:04,VALID,918.829,VALID,0,VALID,78.788,VALID,723.724,VALID,24.6326,VALID,271,VALID,0,
2015-06-02, 10:18:04,VALID,918.835,VALID,0,VALID,80.4194,VALID,570.513,VALID,24.8474,VALID,15,VALID,0,
2015-06-02, 10:19:04,VALID,918.816,VALID,0,VALID,77.9418,VALID,391.408,VALID,25.0621,VALID,339,VALID,0.00234375,
2015-06-02, 10:20:04,VALID,918.834,VALID,0,VALID,77.3167,VALID,356.705,VALID,25.1188,VALID,353,VALID,0.0078125,
2015-06-02, 10:21:04,VALID,918.796,VALID,0,VALID,74.7781,VALID,496.163,VALID,25.1012,VALID,267,VALID,0,
2015-06-02, 10:22:04,VALID,918.792,VALID,0,VALID,76.9431,VALID,660.011,VALID,25.1969,VALID,315,VALID,0,
2015-06-02, 10:23:04,VALID,918.771,VALID,0,VALID,75.2889,VALID,770.031,VALID,25.1969,VALID,312,VALID,0,
2015-06-02, 10:24:04,VALID,918.787,VALID,0,VALID,76.8821,VALID,740.055,VALID,25.2379,VALID,323,VALID,0,
2015-06-02, 10:25:04,VALID,918.773,VALID,0,VALID,74.3436,VALID,692.781,VALID,25.1207,VALID,300,VALID,0.566797,
2015-06-02, 10:26:04,VALID,918.776,VALID,0,VALID,75.8377,VALID,633.795,VALID,24.984,VALID,319,VALID,0,
2015-06-02, 10:27:04,VALID,918.779,VALID,0,VALID,76.9126,VALID,418.483,VALID,25.0212,VALID,347,VALID,0.396875,
2015-06-02, 10:28:04,VALID,918.754,VALID,0,VALID,74.5113,VALID,342.2,VALID,25.0212,VALID,299,VALID,0.0558594,
2015-06-02, 10:29:04,VALID,918.751,VALID,0,VALID,75.3575,VALID,328.77,VALID,24.8259,VALID,297,VALID,0.0253906,
2015-06-02, 10:30:04,VALID,918.729,VALID,0,VALID,76.0359,VALID,459.741,VALID,24.5526,VALID,292,VALID,0.175781,
2015-06-02, 10:31:04,VALID,918.703,VALID,0,VALID,77.7207,VALID,675.697,VALID,24.3983,VALID,25,VALID,1.32734,
2015-06-02, 10:32:04,VALID,918.702,VALID,0,VALID,79.2454,VALID,680.747,VALID,24.4745,VALID,30,VALID,0.242578,
2015-06-02, 10:33:04,VALID,918.71,VALID,0,VALID,77.6597,VALID,435.137,VALID,24.7888,VALID,14,VALID,0.0566406,
2015-06-02, 10:34:04,VALID,918.687,VALID,0,VALID,76.1503,VALID,355.308,VALID,25.0798,VALID,353,VALID,0,
2015-06-02, 10:35:04,VALID,918.688,VALID,0,VALID,73.8404,VALID,620.473,VALID,25.1188,VALID,295,VALID,0,
2015-06-02, 10:36:04,VALID,918.683,VALID,0,VALID,75.3803,VALID,663.986,VALID,24.9431,VALID,281,VALID,0.327734,
2015-06-02, 10:37:04,VALID,918.674,VALID,0,VALID,74.5189,VALID,624.555,VALID,24.7888,VALID,272,VALID,0,
2015-06-02, 10:38:04,VALID,918.687,VALID,0,VALID,76.8517,VALID,502.073,VALID,24.865,VALID,272,VALID,0,
2015-06-02, 10:39:04,VALID,918.714,VALID,0,VALID,77.3853,VALID,412.037,VALID,24.8455,VALID,250,VALID,1.04922,
2015-06-02, 10:40:04,VALID,918.686,VALID,0,VALID,77.4539,VALID,596.083,VALID,24.6698,VALID,248,VALID,0.00078125,
2015-06-02, 10:41:04,VALID,918.66,VALID,0,VALID,79.9163,VALID,724.368,VALID,24.5917,VALID,247,VALID,0.00585938,
2015-06-02, 10:42:04,VALID,918.621,VALID,0,VALID,79.4741,VALID,728.666,VALID,24.7869,VALID,249,VALID,0,
2015-06-02, 10:43:04,VALID,918.608,VALID,0,VALID,79.84,VALID,734.79,VALID,25.0993,VALID,290,VALID,0,
2015-06-02, 10:44:04,VALID,918.542,VALID,0,VALID,76.9279,VALID,499.601,VALID,25.3531,VALID,316,VALID,0.382422,
2015-06-02, 10:45:04,VALID,918.517,VALID,0,VALID,76.6001,VALID,748.65,VALID,25.1774,VALID,343,VALID,0.76875,
2015-06-02, 10:46:04,VALID,918.54,VALID,0,VALID,77.0727,VALID,748.113,VALID,25.0212,VALID,292,VALID,0.00585938,
2015-06-02, 10:47:04,VALID,918.554,VALID,0,VALID,76.1579,VALID,763.154,VALID,25.0017,VALID,281,VALID,0.0195313,
2015-06-02, 10:48:04,VALID,918.567,VALID,0,VALID,77.6064,VALID,786.254,VALID,25.0798,VALID,280,VALID,0,
2015-06-02, 10:49:04,VALID,918.594,VALID,0,VALID,76.7449,VALID,785.825,VALID,25.2555,VALID,325,VALID,0,
2015-06-02, 10:50:04,VALID,918.633,VALID,0,VALID,74.3817,VALID,801.296,VALID,25.3922,VALID,316,VALID,0.0105469,
2015-06-02, 10:51:04,VALID,918.611,VALID,0,VALID,74.5265,VALID,813.759,VALID,25.2555,VALID,314,VALID,0,
2015-06-02, 10:52:04,VALID,918.617,VALID,0,VALID,75.1516,VALID,728.451,VALID,25.3531,VALID,314,VALID,0,
2015-06-02, 10:53:04,VALID,918.6,VALID,0,VALID,74.9839,VALID,396.243,VALID,25.4898,VALID,317,VALID,0.0289063,
2015-06-02, 10:54:04,VALID,918.623,VALID,0,VALID,75.6548,VALID,360.358,VALID,25.3336,VALID,309,VALID,0.68125,
2015-06-02, 10:55:04,VALID,918.632,VALID,0,VALID,75.0983,VALID,339.621,VALID,25.0193,VALID,274,VALID,0.358203,
2015-06-02, 10:56:04,VALID,918.623,VALID,0,VALID,74.5494,VALID,353.267,VALID,24.8455,VALID,299,VALID,0.0125,